COSMO-SKYMED 3

Last updated on Mon Jun 22 2026 00:02:51 GMT+0000 (Coordinated Universal Time)

1 33412U 08054A 26172.52556606 .00002734 00000+0 18677-3 0 9990 2 33412 97.8285 31.1674 0013918 249.8501 110.1229 15.06975009957590
UTC large
Height (km)
Speed (km/s)
/
Latitude / Longitude
Inclination (degrees)
Orbital Period (minutes)
Azimuth
Elevation
Range (km)
Doppler Factor

Next 0 passes for location: London (51.5072 / 0.1276)

No passes found over London.
COSMO-SKYMED 3